BAW253 MYNN-MWCR

Flight info

Callsign BAW253
Flight time 1h 1m
Altitude 39000
Route JEFRY G437 DYNAH UG437 ULBAS UM330 XOTIK/N0479F410 UM330 KANEX GORAN3
Aircraft B77W/H-SDE1E2E3FGHIJ2J3J4J5M1RWXY/LB1D1

Departure

Time 2026-04-22 08:54
Airport Lynden Pindling International Airport (MYNN)

Arrival

Time 2026-04-22 09:55
Airport Owen Roberts International Airport (MWCR)
Time Latitude Longitude Altitude Speed Heading
2026-04-22 08:50 25.05024 -77.46885 22 ft 0 kts 352°
2026-04-22 08:50 25.05017 -77.46884 22 ft 0 kts 352°
2026-04-22 08:50 25.05004 -77.46882 25 ft 0 kts 352°
2026-04-22 08:51 25.04990 -77.46880 24 ft 0 kts 352°
2026-04-22 08:51 25.04977 -77.46876 25 ft 0 kts 322°
2026-04-22 08:51 25.04971 -77.46862 26 ft 0 kts 265°
2026-04-22 08:51 25.04972 -77.46859 27 ft 0 kts 262°
2026-04-22 08:52 25.04951 -77.46899 25 ft 11 kts 229°
2026-04-22 08:53 25.04884 -77.46939 24 ft 12 kts 184°
2026-04-22 08:53 25.04814 -77.46971 28 ft 12 kts 232°
2026-04-22 08:53 25.04774 -77.47047 30 ft 12 kts 224°
2026-04-22 08:53 25.04702 -77.47030 27 ft 12 kts 136°
2026-04-22 08:54 25.04479 -77.46787 29 ft 100 kts 134°
2026-04-22 08:54 25.03751 -77.45946 259 ft 191 kts 134°
2026-04-22 08:54 25.02745 -77.44958 1790 ft 198 kts 141°
2026-04-22 08:54 25.01298 -77.44475 2341 ft 243 kts 177°
2026-04-22 08:55 24.99661 -77.45140 3104 ft 258 kts 209°
2026-04-22 08:55 24.98136 -77.46260 3974 ft 266 kts 210°
2026-04-22 08:55 24.96561 -77.47337 5026 ft 268 kts 208°
2026-04-22 08:55 24.94952 -77.48327 6198 ft 262 kts 208°
2026-04-22 08:56 24.93289 -77.49267 6979 ft 276 kts 207°
2026-04-22 08:56 24.91560 -77.50179 7876 ft 280 kts 206°
2026-04-22 08:56 24.89775 -77.51072 8878 ft 281 kts 205°
2026-04-22 08:56 24.87974 -77.51940 9866 ft 285 kts 205°
2026-04-22 08:57 24.86116 -77.52813 10606 ft 296 kts 204°
2026-04-22 08:57 24.84125 -77.53735 10921 ft 325 kts 204°
2026-04-22 08:57 24.81934 -77.54737 11141 ft 356 kts 204°
2026-04-22 08:57 24.79567 -77.55812 11388 ft 383 kts 203°
2026-04-22 08:58 24.77065 -77.56937 12178 ft 392 kts 203°
2026-04-22 08:58 24.74534 -77.58071 13276 ft 392 kts 203°
2026-04-22 08:58 24.71988 -77.59211 14291 ft 395 kts 203°
2026-04-22 08:58 24.69445 -77.60352 15102 ft 401 kts 204°
2026-04-22 08:59 24.66840 -77.61521 15936 ft 406 kts 204°
2026-04-22 08:59 24.64206 -77.62702 16807 ft 411 kts 204°
2026-04-22 08:59 24.61534 -77.63896 17665 ft 416 kts 205°
2026-04-22 08:59 24.58836 -77.65104 18465 ft 422 kts 204°
2026-04-22 09:00 24.56099 -77.66352 19167 ft 427 kts 205°
2026-04-22 09:00 24.53354 -77.67638 19917 ft 431 kts 206°
2026-04-22 09:00 24.50589 -77.68942 20669 ft 435 kts 206°
2026-04-22 09:00 24.47794 -77.70255 21407 ft 438 kts 206°
2026-04-22 09:01 24.44972 -77.71575 22127 ft 443 kts 206°
2026-04-22 09:01 24.42159 -77.72886 22801 ft 447 kts 206°
2026-04-22 09:01 24.39274 -77.74225 23476 ft 452 kts 206°
2026-04-22 09:01 24.36357 -77.75575 24071 ft 456 kts 207°
2026-04-22 09:02 24.33425 -77.76931 24643 ft 459 kts 207°
2026-04-22 09:02 24.30473 -77.78295 25245 ft 462 kts 207°
2026-04-22 09:02 24.27503 -77.79667 25814 ft 465 kts 207°
2026-04-22 09:02 24.24511 -77.81050 26379 ft 468 kts 208°
2026-04-22 09:03 24.21503 -77.82440 26932 ft 471 kts 208°
2026-04-22 09:03 24.18468 -77.83842 27468 ft 474 kts 208°
2026-04-22 09:03 24.15420 -77.85248 27996 ft 477 kts 208°
2026-04-22 09:03 24.12392 -77.86645 28506 ft 479 kts 208°
2026-04-22 09:04 24.09312 -77.88065 28998 ft 482 kts 208°
2026-04-22 09:04 24.06198 -77.89500 29464 ft 485 kts 208°
2026-04-22 09:04 24.03072 -77.90940 29893 ft 488 kts 208°
2026-04-22 09:04 23.99940 -77.92382 30333 ft 489 kts 209°
2026-04-22 09:05 23.96804 -77.93823 30849 ft 487 kts 209°
2026-04-22 09:05 23.93713 -77.95291 31421 ft 481 kts 212°
2026-04-22 09:05 23.90707 -77.96861 31949 ft 478 kts 213°
2026-04-22 09:05 23.87728 -77.98458 32453 ft 476 kts 213°
2026-04-22 09:06 23.84799 -78.00038 32927 ft 474 kts 213°
2026-04-22 09:06 23.81839 -78.01627 33415 ft 473 kts 213°
2026-04-22 09:06 23.78888 -78.03202 33903 ft 471 kts 213°
2026-04-22 09:06 23.75938 -78.04769 34341 ft 469 kts 213°
2026-04-22 09:07 23.73001 -78.06325 34732 ft 468 kts 213°
2026-04-22 09:07 23.71061 -78.07353 34988 ft 467 kts 214°
2026-04-22 09:07 23.68137 -78.08901 35365 ft 466 kts 214°
2026-04-22 09:07 23.65225 -78.10439 35731 ft 465 kts 214°
2026-04-22 09:08 23.62319 -78.11971 36090 ft 463 kts 214°
2026-04-22 09:08 23.59418 -78.13500 36445 ft 462 kts 214°
2026-04-22 09:08 23.56522 -78.15026 36780 ft 461 kts 214°
2026-04-22 09:08 23.53629 -78.16551 37057 ft 462 kts 214°
2026-04-22 09:09 23.50725 -78.18084 37081 ft 466 kts 214°
2026-04-22 09:09 23.44930 -78.21135 37111 ft 462 kts 214°
2026-04-22 09:10 23.39170 -78.24158 37109 ft 457 kts 214°
2026-04-22 09:10 23.33450 -78.27166 37115 ft 456 kts 214°
2026-04-22 09:11 23.27737 -78.30168 37116 ft 456 kts 214°
2026-04-22 09:11 23.22054 -78.33150 37118 ft 456 kts 214°
2026-04-22 09:12 23.16324 -78.36153 37116 ft 457 kts 214°
2026-04-22 09:12 23.10589 -78.39155 37117 ft 457 kts 214°
2026-04-22 09:13 23.04851 -78.42157 37108 ft 458 kts 214°
2026-04-22 09:13 22.99147 -78.45138 37106 ft 458 kts 214°
2026-04-22 09:14 22.93406 -78.48141 37114 ft 458 kts 214°
2026-04-22 09:14 22.87659 -78.51146 37112 ft 458 kts 214°
2026-04-22 09:15 22.81922 -78.54143 37115 ft 458 kts 214°
2026-04-22 09:15 22.76186 -78.57135 37090 ft 457 kts 214°
2026-04-22 09:16 22.70441 -78.60123 37084 ft 457 kts 214°
2026-04-22 09:16 22.64704 -78.63103 37098 ft 457 kts 214°
2026-04-22 09:17 22.59002 -78.66064 37099 ft 456 kts 214°
2026-04-22 09:17 22.53271 -78.69038 37095 ft 456 kts 214°
2026-04-22 09:18 22.47531 -78.72013 37096 ft 456 kts 214°
2026-04-22 09:18 22.41834 -78.74964 37098 ft 456 kts 214°
2026-04-22 09:19 22.36102 -78.77930 37092 ft 456 kts 214°
2026-04-22 09:19 22.30374 -78.80891 37091 ft 456 kts 214°
2026-04-22 09:20 22.24678 -78.83834 37093 ft 456 kts 214°
2026-04-22 09:20 22.18936 -78.86797 37093 ft 456 kts 213°
2026-04-22 09:21 22.13200 -78.89754 37092 ft 456 kts 214°
2026-04-22 09:21 22.07498 -78.92692 37093 ft 456 kts 213°
2026-04-22 09:22 22.01758 -78.95647 37091 ft 456 kts 213°
2026-04-22 09:22 21.96049 -78.98582 37091 ft 456 kts 213°
2026-04-22 09:23 21.90314 -79.01528 37089 ft 456 kts 213°
2026-04-22 09:23 21.84583 -79.04470 37088 ft 456 kts 213°
2026-04-22 09:24 21.78848 -79.07413 37088 ft 457 kts 213°
2026-04-22 09:24 21.73112 -79.10365 37082 ft 455 kts 215°
2026-04-22 09:25 21.67821 -79.13956 37092 ft 445 kts 224°
2026-04-22 09:25 21.63167 -79.18256 37089 ft 440 kts 229°
2026-04-22 09:26 21.58641 -79.22629 37079 ft 441 kts 228°
2026-04-22 09:26 21.54057 -79.27026 37077 ft 442 kts 228°
2026-04-22 09:27 21.49459 -79.31412 37076 ft 442 kts 228°
2026-04-22 09:27 21.44841 -79.35807 37080 ft 443 kts 228°
2026-04-22 09:28 21.40227 -79.40196 37071 ft 443 kts 228°
2026-04-22 09:28 21.35641 -79.44556 37072 ft 443 kts 228°
2026-04-22 09:29 21.31019 -79.48946 37065 ft 443 kts 227°
2026-04-22 09:29 21.26400 -79.53327 37071 ft 443 kts 227°
2026-04-22 09:30 21.21804 -79.57683 37069 ft 443 kts 227°
2026-04-22 09:30 21.17178 -79.62065 37071 ft 443 kts 227°
2026-04-22 09:31 21.12551 -79.66445 37065 ft 443 kts 227°
2026-04-22 09:31 21.07926 -79.70819 37064 ft 443 kts 227°
2026-04-22 09:32 21.03323 -79.75168 37063 ft 443 kts 227°
2026-04-22 09:32 20.98701 -79.79533 37060 ft 443 kts 227°
2026-04-22 09:33 20.94073 -79.83898 37057 ft 443 kts 227°
2026-04-22 09:33 20.89437 -79.88268 37058 ft 443 kts 227°
2026-04-22 09:34 20.84829 -79.92608 37063 ft 444 kts 227°
2026-04-22 09:34 20.80180 -79.96983 37049 ft 444 kts 227°
2026-04-22 09:35 20.73202 -80.03546 36328 ft 455 kts 227°
2026-04-22 09:35 20.70823 -80.05783 35654 ft 455 kts 226°
2026-04-22 09:35 20.68445 -80.08014 34816 ft 456 kts 226°
2026-04-22 09:36 20.66086 -80.10227 33970 ft 458 kts 226°
2026-04-22 09:36 20.63682 -80.12481 32994 ft 461 kts 226°
2026-04-22 09:36 20.61262 -80.14749 32067 ft 463 kts 226°
2026-04-22 09:36 20.58833 -80.17026 31124 ft 466 kts 226°
2026-04-22 09:37 20.56391 -80.19314 30303 ft 467 kts 226°
2026-04-22 09:37 20.53952 -80.21596 29524 ft 465 kts 226°
2026-04-22 09:37 20.51525 -80.23866 28799 ft 462 kts 226°
2026-04-22 09:37 20.49116 -80.26116 28109 ft 459 kts 226°
2026-04-22 09:38 20.46725 -80.28347 27443 ft 455 kts 226°
2026-04-22 09:38 20.44345 -80.30566 26804 ft 452 kts 226°
2026-04-22 09:38 20.41986 -80.32765 26163 ft 449 kts 226°
2026-04-22 09:38 20.39639 -80.34955 25527 ft 447 kts 225°
2026-04-22 09:39 20.37298 -80.37138 24895 ft 445 kts 225°
2026-04-22 09:39 20.34999 -80.39281 24273 ft 444 kts 225°
2026-04-22 09:39 20.32674 -80.41448 23640 ft 443 kts 225°
2026-04-22 09:39 20.30356 -80.43607 22909 ft 442 kts 225°
2026-04-22 09:40 20.28045 -80.45758 22259 ft 439 kts 225°
2026-04-22 09:40 20.25751 -80.47893 21633 ft 436 kts 225°
2026-04-22 09:40 20.23473 -80.50010 21026 ft 433 kts 224°
2026-04-22 09:40 20.21209 -80.52115 20422 ft 431 kts 224°
2026-04-22 09:41 20.18957 -80.54208 19826 ft 428 kts 224°
2026-04-22 09:41 20.16712 -80.56294 19221 ft 427 kts 224°
2026-04-22 09:41 20.14475 -80.58373 18622 ft 426 kts 224°
2026-04-22 09:41 20.12274 -80.60416 17987 ft 425 kts 224°
2026-04-22 09:42 20.10049 -80.62482 17358 ft 422 kts 224°
2026-04-22 09:42 20.07839 -80.64532 16756 ft 420 kts 224°
2026-04-22 09:42 20.05641 -80.66570 16183 ft 417 kts 224°
2026-04-22 09:42 20.03461 -80.68591 15622 ft 414 kts 224°
2026-04-22 09:43 20.01327 -80.70564 15034 ft 400 kts 223°
2026-04-22 09:43 19.99187 -80.72416 14508 ft 396 kts 218°
2026-04-22 09:43 19.96896 -80.74061 13972 ft 396 kts 215°
2026-04-22 09:43 19.94592 -80.75674 13383 ft 396 kts 215°
2026-04-22 09:44 19.92291 -80.77279 12815 ft 395 kts 214°
2026-04-22 09:44 19.89997 -80.78882 12271 ft 393 kts 214°
2026-04-22 09:44 19.87715 -80.80482 11740 ft 392 kts 214°
2026-04-22 09:44 19.85439 -80.82084 11203 ft 390 kts 214°
2026-04-22 09:45 19.83227 -80.83641 11018 ft 379 kts 214°
2026-04-22 09:45 19.81058 -80.85168 10840 ft 368 kts 214°
2026-04-22 09:45 19.78950 -80.86653 10668 ft 358 kts 214°
2026-04-22 09:45 19.76902 -80.88096 10520 ft 348 kts 214°
2026-04-22 09:46 19.74910 -80.89499 10371 ft 339 kts 214°
2026-04-22 09:46 19.72969 -80.90865 10229 ft 329 kts 214°
2026-04-22 09:46 19.71110 -80.92174 10094 ft 321 kts 214°
2026-04-22 09:46 19.69267 -80.93472 9881 ft 315 kts 214°
2026-04-22 09:47 19.67458 -80.94746 9675 ft 309 kts 214°
2026-04-22 09:47 19.65683 -80.95995 9456 ft 298 kts 214°
2026-04-22 09:47 19.63988 -80.97187 8893 ft 288 kts 214°
2026-04-22 09:47 19.62328 -80.98355 8531 ft 286 kts 214°
2026-04-22 09:48 19.60669 -80.99522 8186 ft 286 kts 213°
2026-04-22 09:48 19.59012 -81.00687 7856 ft 286 kts 213°
2026-04-22 09:48 19.57351 -81.01854 7522 ft 286 kts 213°
2026-04-22 09:48 19.55692 -81.03020 7195 ft 286 kts 213°
2026-04-22 09:49 19.54032 -81.04186 6870 ft 286 kts 213°
2026-04-22 09:49 19.52397 -81.05335 6545 ft 286 kts 213°
2026-04-22 09:49 19.50736 -81.06501 6206 ft 286 kts 212°
2026-04-22 09:49 19.49076 -81.07666 5861 ft 286 kts 212°
2026-04-22 09:50 19.47412 -81.08834 5523 ft 287 kts 212°
2026-04-22 09:50 19.45744 -81.10003 5177 ft 287 kts 212°
2026-04-22 09:50 19.44074 -81.11174 4852 ft 287 kts 212°
2026-04-22 09:50 19.42412 -81.12340 4507 ft 286 kts 211°
2026-04-22 09:51 19.40751 -81.13505 4211 ft 285 kts 211°
2026-04-22 09:51 19.39095 -81.14666 3873 ft 286 kts 211°
2026-04-22 09:51 19.37438 -81.15826 3596 ft 283 kts 211°
2026-04-22 09:51 19.35820 -81.16960 3436 ft 275 kts 211°
2026-04-22 09:52 19.34275 -81.18064 3192 ft 269 kts 216°
2026-04-22 09:52 19.33146 -81.19599 2953 ft 263 kts 245°
2026-04-22 09:52 19.32652 -81.21434 2611 ft 254 kts 257°
2026-04-22 09:52 19.32254 -81.23185 2292 ft 236 kts 256°
2026-04-22 09:53 19.31872 -81.24823 1953 ft 222 kts 256°
2026-04-22 09:53 19.31508 -81.26367 1637 ft 210 kts 257°
2026-04-22 09:53 19.31169 -81.27804 1346 ft 196 kts 256°
2026-04-22 09:53 19.30852 -81.29143 1086 ft 177 kts 256°
2026-04-22 09:54 19.30567 -81.30341 909 ft 172 kts 256°
2026-04-22 09:54 19.30268 -81.31607 690 ft 181 kts 256°
2026-04-22 09:54 19.29964 -81.32884 464 ft 172 kts 258°
2026-04-22 09:54 19.29679 -81.34077 296 ft 164 kts 257°
2026-04-22 09:55 19.29412 -81.35259 32 ft 166 kts 256°
2026-04-22 09:55 19.29190 -81.36169 21 ft 58 kts 257°
2026-04-22 09:55 19.29181 -81.36285 25 ft 8 kts 322°
2026-04-22 09:55 19.29232 -81.36308 23 ft 8 kts 333°
2026-04-22 09:56 19.29283 -81.36332 23 ft 8 kts 350°
2026-04-22 09:56 19.29321 -81.36335 25 ft 0 kts 356°